{"data":{"norad_id":55406,"epoch":"2026-09-20T12:09:18.437760Z","epoch_age_seconds":96082,"freshness":"FRESH","line1":"1 55406U 23014R   26263.50646340 -.00001107  00000+0 -84969-4 0  9997","line2":"2 55406  69.9976 293.3940 0003584 264.8998  95.1752 14.98324892201231","mean_motion":14.98324892,"eccentricity":0.0003584,"inclination_deg":69.9976,"raan_deg":293.394,"arg_perigee_deg":264.8998,"mean_anomaly_deg":95.1752,"bstar":-8.4969e-5,"rev_number":20123,"period_min":96.107326767952,"perigee_km":569.58073226449,"apogee_km":574.56264185137,"semimajor_km":6950.2086870579,"source":"CELESTRAK","updated_at":"2026-09-21T09:00:33.216627Z"}}